Temperature
27 30 29 29 29 28 29 29 29 29 30 30 29 29 28 26 26 26 25 25 24 24 22 22 21 22 21 21 21 20 20 21 20 19 19 19 19 18 18 17 17 17 16 15
28 29 28 28 29 29 29 29 29 30 29 30 29 29 28 26 26 26 25 25 24 23 22 22 22 22 22 21 21 21 20 21 20 19 19 19 18 18 18 17 16 16 16 15
28 29 29 29 29 29 29 28 28 28 29 29 29 28 29 28 26 25 25 25 24 24 23 22 23 23 22 22 21 21 21 21 20 20 19 18 18 18 18 17 17 16 15 15
29 29 29 28 29 28 29 28 28 27 27 28 28 26 29 29 28 27 25 24 24 24 23 23 23 23 22 22 21 21 22 21 21 20 19 19 19 19 18 17 17 16 15 15
27 29 28 28 28 28 28 28 28 27 27 27 28 27 29 28 27 28 27 25 24 24 22 23 22 23 22 22 21 21 21 21 21 21 20 19 19 19 18 17 16 15 15 14
28 29 29 29 29 28 28 27 27 27 27 27 26 27 28 27 26 27 27 24 23 23 22 21 22 22 21 20 20 20 20 21 21 21 20 20 19 19 18 17 16 16 15 15
28 29 29 29 29 28 28 27 27 28 28 27 26 26 26 23 22 22 21 19 19 19 18 17 18 18 18 18 19 19 19 20 20 20 20 19 19 19 18 16 16 16 15 15
28 26 29 28 28 27 27 26 25 26 26 26 26 26 23 21 20 19 18 18 17 17 17 16 15 15 15 15 15 16 16 17 18 19 19 19 19 18 17 16 17 16 16 15
29 29 28 28 28 27 25 28 27 27 25 25 27 27 23 21 19 18 17 16 16 15 15 15 14 14 14 14 13 13 13 14 15 16 16 17 18 18 17 16 17 16 16 16
28 25 28 28 27 26 26 27 26 27 25 25 26 26 25 19 18 18 16 16 15 15 15 14 14 13 12 12 12 12 12 12 13 13 14 14 15 15 15 15 15 15 15 15
28 26 27 28 27 26 27 27 26 25 26 24 24 25 19 17 17 17 16 15 15 14 14 14 13 13 12 12 12 11 11 12 13 13 12 13 13 13 14 14 14 14 14 15
27 26 26 27 27 26 26 27 26 25 25 24 24 22 17 17 16 16 16 15 14 14 13 13 13 12 12 11 11 10 10 10 11 12 13 13 12 12 13 13 13 14 13 13
26 26 25 26 26 26 26 27 26 24 24 24 24 20 14 14 13 13 13 13 13 13 12 12 12 12 11 10 10 9 10 11 12 11 11 12 12 11 11 12 13 13 13 13
24 25 25 25 26 26 26 26 26 24 24 24 24 19 12 11 11 11 10 10 10 10 10 10 10 10 11 11 11 10 9 10 11 11 10 9 11 11 10 11 12 12 12 13
25 25 25 26 26 26 25 23 23 23 22 21 21 18 12 11 11 9 9 8 8 8 9 9 9 10 10 10 11 11 11 10 10 10 10 8 9 11 9 10 11 12 12 13
24 25 24 25 26 25 24 20 20 19 17 19 16 14 13 11 10 9 9 8 8 9 10 10 10 11 11 11 11 10 10 10 10 10 10 10 10 8 9 10 11 11 11 12
25 23 23 25 25 24 21 16 16 15 14 15 14 12 12 11 10 11 12 13 13 12 12 12 12 12 12 11 11 11 11 11 11 11 11 11 11 10 10 10 10 10 10 11
23 22 23 24 23 22 16 16 16 15 13 13 12 11 11 12 13 14 14 13 13 12 12 12 11 11 11 11 11 10 10 11 11 11 11 11 11 11 10 10 10 10 10 10
22 22 23 23 23 18 15 16 16 15 14 13 12 14 15 14 14 15 15 13 12 11 11 11 11 10 10 10 10 10 10 10 10 10 10 10 10 10 10 10 10 9 9 9
23 22 23 22 21 21 16 16 16 16 14 13 14 15 14 14 14 14 13 11 11 10 10 10 10 9 9 9 9 9 9 9 9 9 9 9 9 9 9 10 9 9 9 9
21 21 21 20 20 18 16 16 16 17 15 15 14 13 13 12 13 12 11 11 11 10 10 9 9 9 9 8 8 7 7 7 8 8 8 8 8 9 9 9 9 9 9 9
21 20 20 20 19 17 15 15 15 15 14 13 13 12 12 11 11 11 11 10 10 10 9 9 9 8 8 7 6 6 5 6 6 6 7 7 7 8 9 9 9 9 9 9
19 17 19 18 18 16 15 15 14 13 13 12 12 11 11 11 10 10 10 10 9 9 9 9 8 7 6 5 5 4 4 4 4 5 5 5 6 7 8 8 8 8 9 9
18 15 17 17 17 16 15 14 13 12 11 11 11 11 10 10 10 10 9 9 9 9 8 8 8 6 4 4 4 3 4 4 4 4 5 5 5 6 6 7 8 9 10 10
17 16 16 16 17 15 15 13 12 11 11 11 10 10 10 10 9 9 9 9 8 8 8 8 7 5 4 3 3 4 4 3 3 4 4 4 4 4 5 6 7 8 9 9
15 15 16 16 14 14 13 12 12 11 11 10 10 10 9 9 9 9 8 8 8 7 7 7 6 4 3 3 3 3 4 3 3 3 3 3 4 4 4 5 6 7 8 8
Wind_Speed
4 5 2 6 4 5 2 3 2 1 5 6 6 3 3 5 7 9 11 11 10 9 9 9 8 7 8 7 7 5 4 4 3 3 2 2 3 3 3 2 2 3 3 2
7 6 7 3 3 0 1 4 3 2 2 6 6 5 4 7 9 10 11 11 10 9 9 8 7 7 8 8 8 6 5 6 4 3 2 2 3 4 3 3 3 4 4 4
6 8 3 1 2 7 6 7 8 8 9 11 10 12 10 10 8 9 10 9 8 9 9 8 8 9 8 8 8 7 6 6 6 4 4 5 6 7 7 7 7 4 5 6
4 3 5 7 7 7 8 5 5 7 10 9 5 10 10 9 10 13 11 9 8 7 8 8 9 9 8 8 8 8 8 8 7 7 6 6 7 7 7 7 7 6 5 6
4 4 7 8 6 7 5 4 4 8 12 10 5 7 5 3 8 13 13 9 7 8 9 8 9 7 4 4 6 8 9 10 9 9 9 8 8 8 7 7 6 7 6 6
3 3 5 7 6 4 4 7 11 11 8 4 4 4 2 8 11 9 3 3 2 1 2 1 6 5 6 6 7 8 8 10 10 10 10 9 8 9 9 7 7 7 7 6
2 3 1 5 9 4 7 10 10 7 5 1 4 5 8 17 15 16 17 16 13 13 15 18 20 16 12 12 12 11 10 11 10 10 10 9 9 8 9 8 7 6 7 7
3 2 4 6 8 10 9 8 8 7 8 7 2 1 11 18 16 17 18 17 16 16 17 18 15 15 16 17 18 17 15 13 11 10 9 8 8 7 8 8 7 6 6 6
5 5 3 1 5 6 4 3 4 6 7 8 3 6 13 17 17 17 17 17 17 16 16 17 17 19 19 18 18 19 19 17 14 10 6 6 7 8 9 9 8 7 6 6
5 9 5 2 5 2 3 2 4 4 4 6 4 7 1 12 11 13 14 15 15 14 15 15 15 17 17 17 17 16 17 18 17 17 14 10 9 9 10 11 11 10 8 7
6 5 7 6 4 6 3 3 2 5 5 7 11 3 6 7 7 7 9 10 12 14 15 15 15 15 15 14 14 14 15 16 16 17 16 15 15 14 12 12 13 12 11 10
3 6 10 9 1 3 4 3 5 7 5 9 13 4 5 7 5 5 7 9 12 15 15 14 14 14 13 13 12 12 13 14 15 15 14 14 14 16 15 13 14 14 13 13
3 6 9 6 5 5 5 4 5 7 9 11 11 1 7 8 8 11 14 15 15 17 17 16 16 17 16 13 12 10 9 10 11 14 15 12 12 15 16 15 15 15 15 15
3 8 11 13 10 8 9 8 6 9 12 15 11 2 4 7 9 12 14 15 16 17 17 17 16 14 12 10 8 8 8 6 5 7 13 13 9 13 17 17 14 15 16 17
2 7 10 12 14 9 8 8 10 10 9 10 12 7 4 9 11 12 13 14 16 15 14 14 14 14 12 12 12 12 11 11 11 10 10 13 12 10 14 17 16 15 13 15
2 5 7 13 9 6 1 10 9 7 8 8 6 3 7 11 11 14 16 16 18 18 17 17 16 18 15 14 14 15 13 13 14 15 16 15 13 13 14 14 14 15 12 10
4 6 6 9 5 9 1 9 9 4 4 5 3 7 14 16 14 17 18 18 18 18 20 22 23 23 23 22 20 21 17 16 16 14 15 13 10 13 14 13 13 16 15 12
7 6 6 9 12 7 5 6 6 6 2 1 3 11 14 17 18 20 21 17 18 22 24 24 24 25 25 25 25 24 24 23 22 21 20 21 18 19 20 15 14 15 14 12
8 8 6 6 9 4 4 7 9 11 10 9 10 17 21 23 24 21 16 18 21 24 25 25 26 27 27 26 26 25 24 23 23 23 22 23 23 21 20 19 16 16 14 14
11 7 5 7 9 4 6 11 13 10 7 6 18 25 26 26 23 19 21 21 24 26 26 27 28 28 26 25 25 25 24 24 24 24 22 21 22 20 20 17 16 15 15 16
10 8 7 8 7 4 7 14 14 10 14 22 25 27 27 24 22 25 26 26 27 28 29 29 29 25 23 21 20 22 23 23 24 22 21 21 22 20 18 16 15 15 16 17
6 6 7 6 7 3 9 13 10 15 21 25 26 26 26 26 26 27 29 30 29 29 30 29 25 22 20 19 19 22 23 20 20 20 18 21 22 20 18 16 15 15 16 17
3 5 4 4 5 6 10 15 16 19 24 26 24 26 26 27 30 32 30 29 30 30 29 28 27 27 26 22 17 22 23 20 19 17 16 20 22 21 18 17 16 16 16 15
2 1 4 6 5 11 17 18 19 22 24 25 26 27 27 29 32 31 30 30 30 30 29 29 26 24 24 22 18 22 23 19 16 20 21 15 16 18 16 16 14 15 16 14
3 3 5 11 10 16 18 21 23 23 24 26 27 27 28 30 31 31 31 31 29 30 30 29 25 23 24 22 23 24 21 19 19 19 17 14 11 14 16 15 14 15 13 8
1 3 7 10 16 18 22 23 23 24 26 26 28 30 29 29 30 32 31 30 29 30 30 30 24 22 24 23 23 20 21 16 16 16 14 13 11 10 11 12 13 18 15 5
Wind_Direction
230 251 51 51 39 20 348 294 267 86 18 330 356 4 164 174 191 185 188 183 175 155 138 135 137 145 149 155 158 166 166 141 156 179 219 224 247 252 255 245 219 231 242 275
207 63 57 85 106 141 339 291 289 288 35 317 317 301 178 188 198 199 198 195 180 156 150 145 153 157 163 162 162 156 156 151 178 202 233 280 276 272 287 275 243 246 277 290
336 48 41 246 271 316 295 301 311 303 320 276 264 261 211 205 213 214 209 202 193 174 156 151 169 171 175 178 174 162 169 177 198 212 209 221 232 236 241 244 246 256 289 284
304 360 333 307 306 326 317 16 313 304 306 299 308 289 257 210 219 223 214 210 206 178 144 172 192 192 197 198 190 181 188 200 209 219 242 261 286 298 307 293 290 301 286 287
321 324 314 305 340 323 340 2 301 300 298 293 266 265 265 115 272 243 216 213 204 183 163 195 223 225 244 244 223 209 207 216 222 224 240 246 265 285 281 276 275 271 268 275
307 289 297 332 329 300 310 281 265 253 260 239 81 303 337 52 11 3 70 148 164 270 57 244 277 305 315 305 284 264 249 246 242 238 236 239 255 267 269 261 269 292 301 292
217 172 74 336 317 288 284 295 288 255 238 36 96 279 54 52 39 40 46 45 36 25 25 26 13 1 355 345 330 311 292 279 267 253 248 244 245 245 246 246 263 287 297 307
298 312 11 351 340 321 310 298 283 303 315 326 216 203 82 65 61 61 59 54 46 40 42 46 38 24 28 19 9 359 344 322 302 277 256 245 241 239 239 237 254 266 286 295
317 303 331 345 323 314 300 301 328 296 264 260 216 138 101 61 66 62 56 50 44 36 32 34 30 27 26 23 19 15 7 3 359 344 304 269 256 253 245 238 232 241 252 267
297 302 316 332 257 160 277 346 281 257 287 293 270 237 41 42 61 59 49 39 31 29 23 21 20 18 13 8 7 10 9 5 5 5 356 343 314 276 255 245 243 246 246 251
281 278 296 296 335 337 253 221 287 301 296 302 293 329 43 52 55 49 42 30 22 11 7 3 5 4 359 356 355 356 355 352 351 352 347 345 335 318 290 266 257 252 249 247
280 283 292 296 126 208 260 304 313 307 307 295 287 284 91 98 71 15 355 356 0 356 353 347 343 339 339 341 339 340 340 342 342 335 330 332 327 317 310 301 286 269 255 250
302 277 290 279 179 194 253 275 289 292 288 284 284 59 68 52 31 2 347 342 340 342 339 337 335 333 334 335 326 317 318 328 334 323 314 318 325 318 315 315 310 293 271 257
267 268 273 290 310 310 296 290 282 283 291 299 306 58 77 13 344 334 330 325 323 324 326 324 321 312 304 299 295 282 274 276 279 291 301 298 300 310 308 301 304 299 282 263
270 272 279 283 289 286 294 347 338 322 324 309 333 14 24 339 313 297 291 291 290 289 284 281 281 280 281 282 276 263 241 234 228 224 239 264 274 276 281 293 303 298 294 277
320 291 304 288 288 286 78 31 3 11 353 337 340 19 337 310 287 275 275 274 278 282 283 283 279 282 283 279 280 283 269 262 249 240 238 230 235 257 270 273 278 284 290 293
350 321 300 301 332 283 218 27 16 29 14 349 343 316 311 303 289 287 295 294 293 300 302 307 311 310 310 308 298 298 293 288 286 281 283 282 269 274 274 278 291 293 296 300
6 331 298 304 302 299 78 48 22 357 252 152 331 291 275 279 294 302 298 299 309 310 309 310 308 306 306 304 300 295 291 289 287 287 289 294 290 286 282 280 280 283 289 292
14 332 317 316 319 104 116 18 351 320 277 232 282 308 316 319 311 302 322 332 318 313 311 308 306 305 305 302 299 297 293 288 280 277 284 289 286 283 279 273 273 279 288 288
8 345 328 341 318 341 44 350 328 301 279 246 306 322 321 319 309 314 325 314 309 308 308 307 306 303 300 299 298 295 292 291 287 286 287 284 277 276 275 271 271 271 274 280
354 349 1 343 325 65 12 342 329 302 328 326 320 317 315 312 306 306 307 307 309 309 308 306 303 301 302 304 302 296 292 289 289 287 287 289 280 274 265 259 261 264 269 273
350 333 4 332 322 343 358 343 333 318 318 317 315 313 312 310 306 304 306 308 309 308 307 307 307 303 304 304 300 295 291 287 289 289 290 290 280 273 265 258 260 260 263 266
14 359 333 313 315 319 320 324 313 320 317 315 314 313 313 310 307 308 309 309 308 306 304 306 307 309 309 301 295 292 288 287 281 275 282 284 278 268 265 262 261 257 251 252
123 344 306 307 293 305 313 314 320 322 316 315 313 310 312 309 310 310 310 310 308 305 304 304 307 303 300 296 290 283 285 285 277 277 281 277 272 275 265 259 255 254 255 245
13 312 298 285 309 315 310 322 324 317 316 315 314 311 311 312 311 311 311 312 311 308 306 308 308 300 297 296 292 293 290 282 274 272 276 268 250 262 271 261 258 262 257 250
293 310 304 313 319 314 313 320 317 318 319 318 317 315 313 312 311 312 313 312 310 310 309 308 307 300 297 296 292 290 290 282 271 269 268 267 261 244 249 269 265 244 244 212
Height
1508 1502 1497 1498 1498 1498 1496 1497 1496 1493 1492 1490 1490 1491 1492 1496 1497 1498 1500 1502 1503 1504 1505 1506 1508 1511 1512 1515 1517 1518 1519 1519 1520 1521 1522 1522 1522 1522 1521 1519 1518 1517 1516 1515
1504 1501 1502 1502 1500 1498 1497 1499 1495 1492 1491 1492 1491 1490 1490 1495 1495 1496 1498 1500 1502 1504 1505 1507 1509 1512 1514 1515 1516 1516 1517 1518 1518 1520 1521 1521 1521 1520 1519 1518 1517 1515 1514 1512
1503 1503 1502 1501 1499 1499 1496 1500 1499 1499 1493 1490 1492 1492 1487 1489 1494 1496 1497 1498 1501 1504 1505 1508 1510 1512 1513 1515 1515 1516 1516 1517 1518 1518 1519 1518 1517 1516 1516 1516 1515 1513 1510 1508
1502 1501 1501 1501 1498 1501 1498 1496 1499 1500 1501 1496 1496 1506 1487 1483 1489 1493 1496 1499 1501 1503 1506 1508 1510 1510 1512 1513 1514 1514 1514 1515 1516 1516 1517 1516 1516 1514 1513 1513 1512 1510 1507 1504
1504 1502 1503 1502 1499 1501 1499 1499 1498 1500 1502 1500 1495 1503 1487 1486 1491 1488 1492 1499 1501 1502 1505 1507 1508 1510 1511 1512 1513 1513 1512 1512 1513 1513 1513 1513 1513 1511 1510 1508 1506 1504 1503 1500
1504 1504 1502 1499 1498 1499 1500 1499 1497 1495 1496 1502 1501 1502 1493 1490 1495 1489 1491 1499 1504 1504 1505 1507 1508 1510 1511 1510 1511 1511 1510 1509 1510 1510 1509 1509 1508 1507 1506 1505 1503 1502 1500 1498
1504 1500 1500 1501 1498 1496 1498 1503 1505 1496 1497 1499 1499 1500 1499 1504 1506 1505 1505 1508 1507 1508 1508 1505 1505 1508 1510 1510 1509 1509 1508 1506 1506 1505 1505 1504 1504 1503 1502 1501 1501 1498 1496 1494
1507 1514 1500 1501 1502 1504 1500 1505 1515 1514 1510 1504 1500 1498 1512 1512 1513 1514 1515 1515 1514 1511 1511 1511 1515 1514 1508 1507 1505 1504 1503 1502 1501 1500 1499 1499 1499 1499 1498 1497 1495 1493 1491 1488
1503 1502 1498 1501 1502 1503 1505 1497 1499 1502 1506 1507 1493 1493 1508 1513 1516 1519 1520 1520 1518 1516 1513 1513 1513 1509 1507 1506 1505 1503 1503 1501 1499 1497 1496 1495 1495 1495 1494 1492 1489 1488 1486 1484
1504 1513 1498 1499 1500 1502 1503 1500 1508 1497 1507 1509 1497 1495 1496 1514 1518 1521 1523 1522 1520 1518 1516 1514 1512 1509 1508 1509 1507 1506 1505 1503 1500 1496 1494 1493 1492 1491 1489 1487 1484 1483 1481 1478
1503 1510 1504 1497 1500 1504 1499 1498 1501 1503 1500 1511 1513 1500 1517 1520 1522 1523 1524 1525 1524 1522 1519 1516 1513 1511 1510 1510 1507 1504 1502 1500 1498 1495 1493 1489 1488 1488 1485 1482 1479 1477 1475 1473
1504 1506 1507 1497 1497 1499 1499 1498 1501 1506 1504 1504 1507 1516 1521 1522 1525 1525 1525 1525 1524 1523 1521 1518 1515 1512 1509 1506 1503 1501 1498 1496 1493 1493 1490 1485 1483 1484 1480 1475 1473 1472 1470 1469
1506 1506 1512 1502 1503 1500 1496 1494 1499 1503 1505 1501 1501 1517 1529 1528 1530 1530 1529 1527 1525 1522 1519 1515 1512 1508 1505 1500 1497 1495 1491 1486 1483 1485 1486 1480 1475 1476 1474 1469 1466 1465 1465 1464
1509 1507 1511 1513 1502 1497 1497 1494 1494 1500 1502 1498 1495 1512 1532 1535 1534 1532 1530 1528 1525 1521 1516 1512 1508 1503 1499 1495 1490 1488 1484 1480 1475 1473 1473 1471 1466 1465 1466 1465 1459 1457 1457 1457
1508 1506 1501 1498 1493 1493 1497 1502 1503 1503 1505 1507 1505 1515 1534 1536 1534 1531 1526 1521 1518 1513 1508 1504 1500 1497 1493 1490 1487 1483 1477 1472 1467 1463 1462 1464 1461 1458 1462 1461 1454 1453 1449 1447
1508 1505 1505 1500 1491 1493 1500 1515 1515 1518 1521 1516 1522 1530 1535 1533 1531 1526 1521 1517 1513 1508 1503 1499 1495 1491 1487 1483 1479 1476 1471 1467 1462 1455 1453 1455 1453 1451 1456 1458 1452 1448 1442 1436
1511 1510 1508 1498 1494 1497 1511 1531 1530 1532 1534 1532 1532 1538 1532 1528 1525 1519 1512 1507 1503 1500 1496 1492 1488 1484 1481 1477 1473 1469 1465 1463 1459 1456 1452 1450 1447 1445 1447 1447 1444 1441 1438 1430
1514 1512 1507 1501 1501 1508 1538 1535 1534 1534 1537 1536 1536 1534 1528 1522 1514 1509 1504 1499 1495 1493 1489 1485 1481 1477 1473 1469 1464 1459 1456 1453 1450 1447 1444 1440 1438 1438 1439 1438 1436 1435 1429 1426
1516 1513 1506 1506 1504 1525 1537 1534 1535 1534 1532 1533 1532 1523 1517 1513 1506 1499 1495 1494 1492 1489 1484 1479 1474 1470 1465 1460 1455 1449 1445 1442 1439 1437 1435 1433 1431 1429 1428 1428 1428 1426 1422 1421
1516 1513 1510 1511 1514 1512 1537 1535 1532 1529 1525 1529 1524 1517 1512 1507 1497 1491 1492 1491 1487 1482 1477 1472 1466 1461 1456 1450 1445 1438 1434 1431 1428 1426 1424 1423 1421 1420 1420 1420 1420 1419 1417 1415
1523 1520 1517 1520 1516 1523 1535 1532 1528 1523 1524 1522 1518 1513 1507 1503 1498 1492 1487 1483 1480 1474 1468 1462 1456 1451 1446 1441 1435 1429 1425 1422 1418 1415 1412 1411 1409 1409 1409 1410 1410 1410 1409 1407
1530 1527 1523 1522 1524 1534 1535 1532 1533 1529 1524 1520 1514 1510 1504 1498 1493 1487 1481 1475 1470 1464 1459 1452 1446 1441 1436 1431 1425 1418 1414 1410 1407 1404 1401 1400 1399 1399 1398 1399 1400 1400 1400 1399
1539 1540 1535 1534 1532 1535 1534 1534 1530 1527 1523 1517 1512 1506 1501 1493 1487 1480 1473 1467 1461 1455 1449 1443 1435 1429 1424 1420 1414 1407 1401 1398 1394 1391 1390 1389 1387 1387 1388 1388 1390 1391 1391 1391
1541 1544 1540 1538 1535 1534 1533 1531 1528 1525 1520 1514 1508 1501 1495 1488 1480 1473 1465 1459 1453 1446 1439 1431 1424 1416 1409 1405 1400 1395 1390 1385 1382 1379 1377 1376 1375 1376 1377 1378 1380 1382 1382 1381
1542 1543 1543 1535 1532 1533 1530 1528 1525 1520 1515 1508 1502 1496 1490 1482 1474 1467 1458 1451 1444 1436 1428 1421 1414 1405 1398 1392 1387 1382 1377 1373 1370 1367 1365 1365 1365 1366 1367 1369 1372 1374 1376 1376
1543 1543 1539 1536 1536 1534 1528 1525 1521 1515 1509 1503 1495 1488 1482 1476 1467 1459 1451 1443 1435 1426 1418 1410 1402 1395 1387 1380 1374 1369 1365 1361 1357 1355 1354 1354 1355 1356 1357 1360 1362 1365 1369 1370